TimeMST,TemperatureF,Dew PointF,Humidity,Sea Level PressureIn,VisibilityMPH,Wind Direction,Wind SpeedMPH,Gust SpeedMPH,PrecipitationIn,Events,Conditions,WindDirDegrees,DateUTC
12:53 AM,28.0,15.1,58,30.24,10.0,SW,16.1,-,N/A,,Clear,230,2013-02-16 07:53:00
1:53 AM,27.0,15.1,61,30.25,10.0,SW,12.7,21.9,N/A,,Clear,230,2013-02-16 08:53:00
2:53 AM,26.1,15.1,63,30.25,10.0,SSW,13.8,-,N/A,,Clear,210,2013-02-16 09:53:00
3:53 AM,26.1,15.1,63,30.24,10.0,SW,12.7,-,N/A,,Clear,230,2013-02-16 10:53:00
4:53 AM,25.0,14.0,63,30.25,10.0,SW,11.5,24.2,N/A,,Clear,220,2013-02-16 11:53:00
5:53 AM,25.0,14.0,63,30.26,10.0,SSW,16.1,-,N/A,,Clear,210,2013-02-16 12:53:00
6:53 AM,25.0,14.0,63,30.26,10.0,SW,12.7,-,N/A,,Clear,220,2013-02-16 13:53:00
7:53 AM,27.0,15.1,61,30.25,10.0,SW,18.4,26.5,N/A,,Clear,220,2013-02-16 14:53:00
8:53 AM,30.0,15.1,54,30.22,10.0,SW,25.3,36.8,N/A,,Clear,220,2013-02-16 15:53:00
9:53 AM,32.0,16.0,52,30.21,10.0,SW,25.3,33.4,N/A,,Clear,220,2013-02-16 16:53:00
10:53 AM,36.0,17.1,46,30.19,10.0,SW,25.3,33.4,N/A,,Clear,220,2013-02-16 17:53:00
11:53 AM,37.0,17.1,44,30.17,10.0,SW,26.5,33.4,N/A,,Clear,230,2013-02-16 18:53:00
12:53 PM,39.0,18.0,43,30.12,10.0,SW,31.1,35.7,N/A,,Clear,220,2013-02-16 19:53:00
1:53 PM,41.0,19.9,43,30.09,10.0,SSW,26.5,34.5,N/A,,Clear,210,2013-02-16 20:53:00
2:53 PM,41.0,21.0,45,30.07,10.0,SW,23.0,33.4,N/A,,Clear,220,2013-02-16 21:53:00
3:53 PM,41.0,21.0,45,30.06,10.0,SSW,20.7,27.6,N/A,,Clear,210,2013-02-16 22:53:00
4:53 PM,39.9,21.9,49,30.04,10.0,SW,18.4,27.6,N/A,,Clear,220,2013-02-16 23:53:00
5:53 PM,37.0,21.9,54,30.04,10.0,SW,16.1,23.0,N/A,,Clear,220,2013-02-17 00:53:00
6:53 PM,35.1,21.9,59,30.03,10.0,SW,17.3,-,N/A,,Clear,220,2013-02-17 01:53:00
7:53 PM,34.0,21.9,61,30.01,10.0,SW,15.0,-,N/A,,Clear,220,2013-02-17 02:53:00
8:53 PM,35.1,21.0,57,29.97,10.0,SW,17.3,25.3,N/A,,Clear,230,2013-02-17 03:53:00
9:53 PM,34.0,19.9,56,29.95,10.0,SW,17.3,-,N/A,,Clear,230,2013-02-17 04:53:00
10:53 PM,33.1,19.0,56,29.91,10.0,SW,21.9,27.6,N/A,,Clear,220,2013-02-17 05:53:00
11:53 PM,33.1,18.0,54,29.89,10.0,West,8.1,-,N/A,,Clear,270,2013-02-17 06:53:00